Location: Newark
(45.4422°N, 16.2769°E)
Time: 20:05:59
(UTC+00:00)

Tiros 1 despin weight - Pass Details

Date: 18 December 2019
Orbit: 594 x 642 km, 48.2° (Epoch: 25 January)

Event Time Altitude Azimuth Distance (km) Brightness Sun altitude
Rises 00:17:03 0° 210° (SSW) 2,913 - -61.9°
Reaches altitude 10° 00:19:40 10° 197° (SSW) 2,002 - -61.6°
Maximum altitude 00:23:28 26° 141° (SE) 1,236 - -61.1°
Drops below altitude 10° 00:27:15 10° 85° (E) 1,985 - -60.6°
Sets 00:29:50 0° 73° (ENE) 2,884 - -60.2°
